TAP553R EDDM-LPPT

Flight info

Callsign TAP553R
Flight time 2h 56m
Altitude 37000
Route ALG2S/26L ALG Y109 UMTEX Y100 TRA DCT LUTIX DCT BENOT DCT NEMOS DCT NINTU DCT MEBAK DCT REPSI DCT LERGA DCT MINSO DCT NARAK DCT AGN DCT PIPOR L866 PPN DCT MIRPO DCT DGO DCT NEA DCT ARDID DCT INBOM
Aircraft A21N/M-SADE1E2E3FGHIJ1J3J7M3P2RWXYZ/LB1D1

Departure

Time 2026-05-07 12:41
Airport Munich Airport (EDDM)

Arrival

Time 2026-05-07 15:37
Airport Lisbon Humberto Delgado Airport (LPPT)
Time Latitude Longitude Altitude Speed Heading
2026-05-07 12:11 48.35271 11.79327 1469 ft 0 kts 264°
2026-05-07 12:28 48.35271 11.79330 1469 ft 2 kts 264°
2026-05-07 12:28 48.35272 11.79351 1469 ft 2 kts 263°
2026-05-07 12:28 48.35274 11.79373 1468 ft 2 kts 264°
2026-05-07 12:29 48.35276 11.79396 1468 ft 2 kts 264°
2026-05-07 12:29 48.35277 11.79417 1467 ft 1 kts 264°
2026-05-07 12:29 48.35279 11.79433 1467 ft 2 kts 251°
2026-05-07 12:29 48.35286 11.79453 1466 ft 2 kts 230°
2026-05-07 12:30 48.35297 11.79468 1465 ft 2 kts 209°
2026-05-07 12:30 48.35311 11.79476 1465 ft 2 kts 188°
2026-05-07 12:30 48.35322 11.79477 1465 ft 0 kts 175°
2026-05-07 12:30 48.35329 11.79475 1465 ft 1 kts 172°
2026-05-07 12:36 48.35327 11.79476 1465 ft 1 kts 173°
2026-05-07 12:36 48.35302 11.79481 1466 ft 6 kts 173°
2026-05-07 12:37 48.35249 11.79490 1467 ft 8 kts 174°
2026-05-07 12:37 48.35192 11.79499 1467 ft 8 kts 174°
2026-05-07 12:37 48.35139 11.79507 1468 ft 8 kts 175°
2026-05-07 12:37 48.35080 11.79515 1468 ft 9 kts 175°
2026-05-07 12:38 48.35016 11.79523 1468 ft 10 kts 175°
2026-05-07 12:38 48.34947 11.79531 1468 ft 10 kts 176°
2026-05-07 12:38 48.34874 11.79541 1468 ft 11 kts 174°
2026-05-07 12:38 48.34800 11.79550 1468 ft 9 kts 176°
2026-05-07 12:39 48.34749 11.79555 1469 ft 7 kts 176°
2026-05-07 12:39 48.34704 11.79559 1469 ft 7 kts 177°
2026-05-07 12:39 48.34660 11.79555 1470 ft 6 kts 195°
2026-05-07 12:39 48.34581 11.79477 1471 ft 25 kts 235°
2026-05-07 12:40 48.34459 11.79204 1475 ft 41 kts 239°
2026-05-07 12:40 48.34369 11.78833 1478 ft 36 kts 262°
2026-05-07 12:40 48.34324 11.78204 1478 ft 97 kts 264°
2026-05-07 12:40 48.34208 11.76872 1485 ft 159 kts 265°
2026-05-07 12:41 48.34088 11.75181 2058 ft 166 kts 265°
2026-05-07 12:41 48.33971 11.73476 2799 ft 169 kts 266°
2026-05-07 12:41 48.33854 11.71741 3530 ft 171 kts 266°
2026-05-07 12:41 48.33718 11.69899 4005 ft 187 kts 265°
2026-05-07 12:42 48.33560 11.67898 4476 ft 203 kts 264°
2026-05-07 12:42 48.33380 11.65708 4905 ft 223 kts 264°
2026-05-07 12:42 48.33194 11.63320 5455 ft 239 kts 265°
2026-05-07 12:42 48.33013 11.60799 6036 ft 255 kts 265°
2026-05-07 12:43 48.32823 11.58150 6856 ft 260 kts 264°
2026-05-07 12:43 48.32629 11.55457 7767 ft 262 kts 263°
2026-05-07 12:43 48.32217 11.52815 8624 ft 265 kts 252°
2026-05-07 12:43 48.31572 11.50241 9504 ft 268 kts 249°
2026-05-07 12:44 48.30894 11.47667 10340 ft 271 kts 249°
2026-05-07 12:44 48.30203 11.45004 10908 ft 284 kts 250°
2026-05-07 12:44 48.29481 11.42166 11321 ft 301 kts 250°
2026-05-07 12:44 48.28734 11.39180 11892 ft 313 kts 250°
2026-05-07 12:45 48.27971 11.36108 12664 ft 317 kts 250°
2026-05-07 12:45 48.27208 11.33024 13444 ft 321 kts 250°
2026-05-07 12:45 48.26437 11.29897 14202 ft 324 kts 250°
2026-05-07 12:45 48.25658 11.26736 14945 ft 328 kts 250°
2026-05-07 12:46 48.24870 11.23539 15679 ft 332 kts 250°
2026-05-07 12:46 48.24071 11.20299 16389 ft 336 kts 250°
2026-05-07 12:46 48.23265 11.17031 17084 ft 339 kts 250°
2026-05-07 12:46 48.22442 11.13697 17784 ft 343 kts 250°
2026-05-07 12:47 48.21614 11.10357 18459 ft 346 kts 250°
2026-05-07 12:47 48.20777 11.06983 19091 ft 350 kts 250°
2026-05-07 12:47 48.19930 11.03572 19721 ft 354 kts 250°
2026-05-07 12:47 48.19073 11.00123 20339 ft 358 kts 250°
2026-05-07 12:48 48.18202 10.96627 20960 ft 362 kts 251°
2026-05-07 12:48 48.17322 10.93098 21553 ft 366 kts 251°
2026-05-07 12:48 48.16428 10.89520 22136 ft 370 kts 251°
2026-05-07 12:48 48.15529 10.85924 22710 ft 373 kts 251°
2026-05-07 12:49 48.14622 10.82305 23270 ft 377 kts 251°
2026-05-07 12:49 48.13702 10.78642 23820 ft 380 kts 251°
2026-05-07 12:49 48.12774 10.74948 24357 ft 383 kts 251°
2026-05-07 12:49 48.11839 10.71230 24887 ft 386 kts 252°
2026-05-07 12:50 48.10896 10.67483 25396 ft 389 kts 251°
2026-05-07 12:50 48.09936 10.63675 25868 ft 392 kts 251°
2026-05-07 12:50 48.08976 10.59879 26335 ft 395 kts 251°
2026-05-07 12:50 48.08005 10.56042 26780 ft 398 kts 251°
2026-05-07 12:51 48.07024 10.52176 27198 ft 401 kts 251°
2026-05-07 12:51 48.06036 10.48289 27608 ft 404 kts 251°
2026-05-07 12:51 48.05039 10.44376 28001 ft 407 kts 251°
2026-05-07 12:51 48.04034 10.40436 28394 ft 410 kts 251°
2026-05-07 12:52 48.03013 10.36440 28769 ft 413 kts 251°
2026-05-07 12:52 48.01988 10.32439 29139 ft 416 kts 251°
2026-05-07 12:52 48.00956 10.28417 29486 ft 419 kts 251°
2026-05-07 12:52 47.99918 10.24376 29841 ft 421 kts 251°
2026-05-07 12:53 47.98871 10.20305 30190 ft 424 kts 250°
2026-05-07 12:53 47.97815 10.16207 30503 ft 426 kts 250°
2026-05-07 12:53 47.96751 10.12085 30789 ft 429 kts 250°
2026-05-07 12:53 47.95673 10.07918 31113 ft 431 kts 250°
2026-05-07 12:54 47.94593 10.03752 31373 ft 434 kts 250°
2026-05-07 12:54 47.93508 9.99576 31640 ft 434 kts 250°
2026-05-07 12:54 47.92428 9.95423 31938 ft 432 kts 250°
2026-05-07 12:54 47.91348 9.91281 32237 ft 430 kts 250°
2026-05-07 12:55 47.90271 9.87152 32511 ft 429 kts 250°
2026-05-07 12:55 47.89191 9.83026 32761 ft 428 kts 250°
2026-05-07 12:55 47.88108 9.78894 33019 ft 427 kts 250°
2026-05-07 12:55 47.87032 9.74800 33240 ft 427 kts 250°
2026-05-07 12:56 47.85958 9.70719 33467 ft 426 kts 250°
2026-05-07 12:56 47.84931 9.66625 33694 ft 425 kts 252°
2026-05-07 12:56 47.84045 9.62467 33929 ft 423 kts 255°
2026-05-07 12:56 47.83316 9.58264 34153 ft 422 kts 258°
2026-05-07 12:57 47.82741 9.54018 34392 ft 421 kts 260°
2026-05-07 12:57 47.82224 9.49732 34636 ft 420 kts 260°
2026-05-07 12:57 47.81714 9.45490 34873 ft 419 kts 260°
2026-05-07 12:57 47.81204 9.41251 35104 ft 419 kts 260°
2026-05-07 12:58 47.80692 9.37014 35313 ft 419 kts 260°
2026-05-07 12:58 47.80177 9.32782 35493 ft 419 kts 259°
2026-05-07 12:58 47.79660 9.28541 35670 ft 420 kts 259°
2026-05-07 12:58 47.79141 9.24297 35849 ft 420 kts 259°
2026-05-07 12:59 47.78615 9.20019 36020 ft 420 kts 259°
2026-05-07 12:59 47.78091 9.15767 36175 ft 421 kts 259°
2026-05-07 12:59 47.77564 9.11508 36313 ft 422 kts 259°
2026-05-07 12:59 47.77036 9.07247 36455 ft 423 kts 259°
2026-05-07 13:00 47.76503 9.02964 36592 ft 424 kts 259°
2026-05-07 13:00 47.75969 8.98684 36740 ft 424 kts 259°
2026-05-07 13:00 47.75432 8.94395 36857 ft 425 kts 259°
2026-05-07 13:00 47.74888 8.90069 36983 ft 426 kts 259°
2026-05-07 13:01 47.73800 8.81451 37011 ft 427 kts 259°
2026-05-07 13:01 47.72705 8.72832 37019 ft 428 kts 259°
2026-05-07 13:02 47.71599 8.64196 37027 ft 427 kts 259°
2026-05-07 13:02 47.70460 8.55577 37028 ft 426 kts 257°
2026-05-07 13:03 47.68759 8.47202 37028 ft 427 kts 250°
2026-05-07 13:03 47.66318 8.39250 37023 ft 427 kts 243°
2026-05-07 13:04 47.63157 8.31800 37026 ft 427 kts 236°
2026-05-07 13:04 47.59713 8.24688 37025 ft 427 kts 235°
2026-05-07 13:05 47.56258 8.17585 37026 ft 427 kts 235°
2026-05-07 13:05 47.52804 8.10497 37024 ft 427 kts 236°
2026-05-07 13:06 47.49330 8.03385 37018 ft 428 kts 236°
2026-05-07 13:06 47.45861 7.96302 37010 ft 427 kts 236°
2026-05-07 13:07 47.42396 7.89243 37008 ft 427 kts 236°
2026-05-07 13:07 47.38920 7.82182 37006 ft 426 kts 236°
2026-05-07 13:08 47.35455 7.75159 37006 ft 426 kts 236°
2026-05-07 13:08 47.31983 7.68140 37010 ft 426 kts 236°
2026-05-07 13:09 47.28514 7.61146 37019 ft 425 kts 236°
2026-05-07 13:09 47.25027 7.54132 37040 ft 425 kts 236°
2026-05-07 13:10 47.21549 7.47156 37047 ft 425 kts 236°
2026-05-07 13:10 47.18066 7.40189 37045 ft 425 kts 236°
2026-05-07 13:11 47.14465 7.33306 37040 ft 426 kts 233°
2026-05-07 13:11 47.10799 7.26538 37031 ft 426 kts 233°
2026-05-07 13:12 47.07131 7.19790 37022 ft 425 kts 233°
2026-05-07 13:12 47.03462 7.13055 37016 ft 425 kts 233°
2026-05-07 13:13 46.99784 7.06321 37015 ft 424 kts 233°
2026-05-07 13:13 46.96116 6.99622 37027 ft 424 kts 233°
2026-05-07 13:14 46.92449 6.92943 37028 ft 424 kts 233°
2026-05-07 13:14 46.88766 6.86256 37035 ft 424 kts 233°
2026-05-07 13:15 46.85054 6.79541 37037 ft 424 kts 233°
2026-05-07 13:15 46.81364 6.72884 37038 ft 424 kts 233°
2026-05-07 13:16 46.77676 6.66245 37030 ft 423 kts 233°
2026-05-07 13:16 46.73974 6.59597 37022 ft 423 kts 233°
2026-05-07 13:17 46.70285 6.52988 37008 ft 422 kts 233°
2026-05-07 13:17 46.66597 6.46397 37007 ft 422 kts 233°
2026-05-07 13:18 46.62899 6.39802 37018 ft 421 kts 233°
2026-05-07 13:18 46.61058 6.36525 36910 ft 422 kts 233°
2026-05-07 13:18 46.59201 6.33223 36966 ft 423 kts 232°
2026-05-07 13:19 46.55490 6.26636 37006 ft 422 kts 232°
2026-05-07 13:19 46.51787 6.20079 37009 ft 422 kts 232°
2026-05-07 13:20 46.48064 6.13505 37011 ft 422 kts 232°
2026-05-07 13:20 46.44355 6.06970 37010 ft 422 kts 232°
2026-05-07 13:21 46.40644 6.00447 37007 ft 421 kts 232°
2026-05-07 13:21 46.36915 5.93908 37004 ft 421 kts 233°
2026-05-07 13:22 46.33205 5.87414 37008 ft 421 kts 232°
2026-05-07 13:22 46.29490 5.80929 36996 ft 421 kts 232°
2026-05-07 13:23 46.25774 5.74460 36990 ft 421 kts 232°
2026-05-07 13:23 46.22043 5.67976 36988 ft 420 kts 232°
2026-05-07 13:24 46.18326 5.61536 36983 ft 420 kts 232°
2026-05-07 13:24 46.14656 5.55033 36989 ft 420 kts 235°
2026-05-07 13:25 46.11316 5.48178 36986 ft 418 kts 237°
2026-05-07 13:25 46.08021 5.41317 36985 ft 418 kts 237°
2026-05-07 13:26 46.04733 5.34486 36986 ft 418 kts 237°
2026-05-07 13:26 46.01430 5.27635 36990 ft 417 kts 237°
2026-05-07 13:27 45.98108 5.20762 36993 ft 417 kts 237°
2026-05-07 13:27 45.94811 5.13957 36991 ft 417 kts 237°
2026-05-07 13:28 45.91504 5.07147 37004 ft 417 kts 237°
2026-05-07 13:28 45.88183 5.00326 36999 ft 417 kts 237°
2026-05-07 13:29 45.84873 4.93541 37007 ft 417 kts 236°
2026-05-07 13:29 45.81558 4.86764 36996 ft 417 kts 236°
2026-05-07 13:30 45.78245 4.80009 36998 ft 417 kts 237°
2026-05-07 13:30 45.74920 4.73244 36995 ft 416 kts 236°
2026-05-07 13:31 45.71601 4.66512 36998 ft 416 kts 236°
2026-05-07 13:31 45.68285 4.59793 36994 ft 415 kts 236°
2026-05-07 13:32 45.64957 4.53067 36984 ft 415 kts 236°
2026-05-07 13:32 45.61641 4.46381 36988 ft 414 kts 236°
2026-05-07 13:33 45.58324 4.39707 37008 ft 415 kts 236°
2026-05-07 13:33 45.54998 4.33035 37011 ft 415 kts 235°
2026-05-07 13:34 45.49973 4.22987 37008 ft 416 kts 235°
2026-05-07 13:35 45.46631 4.16327 37003 ft 415 kts 235°
2026-05-07 13:35 45.43286 4.09676 37004 ft 415 kts 235°
2026-05-07 13:36 45.39925 4.03009 36999 ft 415 kts 235°
2026-05-07 13:36 45.36577 3.96384 36998 ft 414 kts 235°
2026-05-07 13:37 45.33231 3.89780 36989 ft 414 kts 235°
2026-05-07 13:37 45.29873 3.83165 36993 ft 414 kts 235°
2026-05-07 13:38 45.26520 3.76578 36992 ft 413 kts 235°
2026-05-07 13:38 45.23217 3.69960 36998 ft 413 kts 236°
2026-05-07 13:39 45.19950 3.63299 36999 ft 414 kts 236°
2026-05-07 13:39 45.16662 3.56623 36996 ft 414 kts 236°
2026-05-07 13:40 45.13378 3.49980 36992 ft 414 kts 236°
2026-05-07 13:40 45.10084 3.43336 36993 ft 414 kts 236°
2026-05-07 13:41 45.06780 3.36686 36991 ft 414 kts 236°
2026-05-07 13:41 45.03478 3.30058 36987 ft 414 kts 235°
2026-05-07 13:42 45.00184 3.23460 36987 ft 413 kts 235°
2026-05-07 13:42 44.96880 3.16860 36982 ft 414 kts 235°
2026-05-07 13:43 44.93556 3.10233 36986 ft 415 kts 235°
2026-05-07 13:43 44.90243 3.03644 36987 ft 415 kts 235°
2026-05-07 13:44 44.86905 2.97023 36980 ft 414 kts 235°
2026-05-07 13:44 44.83654 2.90340 36976 ft 415 kts 237°
2026-05-07 13:45 44.80533 2.83557 36979 ft 414 kts 237°
2026-05-07 13:45 44.77414 2.76795 36977 ft 414 kts 237°
2026-05-07 13:46 44.74289 2.70035 36976 ft 414 kts 237°
2026-05-07 13:46 44.71148 2.63257 36972 ft 415 kts 237°
2026-05-07 13:47 44.68012 2.56505 36970 ft 415 kts 237°
2026-05-07 13:47 44.64873 2.49762 36967 ft 415 kts 237°
2026-05-07 13:48 44.61716 2.42995 36961 ft 415 kts 237°
2026-05-07 13:48 44.58565 2.36257 36962 ft 416 kts 237°
2026-05-07 13:49 44.55405 2.29516 36960 ft 416 kts 236°
2026-05-07 13:49 44.52246 2.22790 36953 ft 416 kts 236°
2026-05-07 13:50 44.49069 2.16045 36951 ft 415 kts 236°
2026-05-07 13:50 44.45897 2.09325 36950 ft 416 kts 236°
2026-05-07 13:51 44.42720 2.02611 36944 ft 416 kts 236°
2026-05-07 13:51 44.39527 1.95878 36940 ft 416 kts 236°
2026-05-07 13:52 44.36335 1.89163 36946 ft 417 kts 236°
2026-05-07 13:52 44.33146 1.82469 36947 ft 416 kts 236°
2026-05-07 13:53 44.29950 1.75780 36940 ft 417 kts 236°
2026-05-07 13:53 44.26804 1.69006 36942 ft 417 kts 237°
2026-05-07 13:54 44.23706 1.62231 36944 ft 417 kts 237°
2026-05-07 13:54 44.20597 1.55465 36939 ft 417 kts 237°
2026-05-07 13:55 44.17473 1.48689 36938 ft 417 kts 237°
2026-05-07 13:55 44.14348 1.41932 36937 ft 417 kts 237°
2026-05-07 13:56 44.11222 1.35188 36935 ft 417 kts 237°
2026-05-07 13:56 44.08081 1.28431 36936 ft 418 kts 236°
2026-05-07 13:57 44.04921 1.21647 36939 ft 418 kts 236°
2026-05-07 13:57 44.01770 1.14899 36947 ft 419 kts 236°
2026-05-07 13:58 43.98615 1.08157 36953 ft 419 kts 236°
2026-05-07 13:58 43.95447 1.01406 36949 ft 418 kts 236°
2026-05-07 13:59 43.92291 0.94693 36949 ft 417 kts 236°
2026-05-07 13:59 43.89134 0.87985 36951 ft 418 kts 237°
2026-05-07 14:00 43.86161 0.81129 36948 ft 418 kts 238°
2026-05-07 14:00 43.83189 0.74223 36942 ft 418 kts 238°
2026-05-07 14:01 43.80229 0.67358 36940 ft 418 kts 238°
2026-05-07 14:01 43.77259 0.60488 36938 ft 418 kts 238°
2026-05-07 14:02 43.74275 0.53599 36937 ft 418 kts 238°
2026-05-07 14:02 43.71305 0.46760 36939 ft 418 kts 238°
2026-05-07 14:03 43.68330 0.39926 36939 ft 417 kts 238°
2026-05-07 14:03 43.65353 0.33101 36940 ft 417 kts 237°
2026-05-07 14:04 43.62366 0.26273 36933 ft 417 kts 237°
2026-05-07 14:04 43.59382 0.19465 36928 ft 417 kts 237°
2026-05-07 14:05 43.56386 0.12645 36931 ft 417 kts 237°
2026-05-07 14:05 43.53381 0.05822 36925 ft 418 kts 237°
2026-05-07 14:06 43.50378 -0.00981 36919 ft 418 kts 237°
2026-05-07 14:06 43.47371 -0.07775 36923 ft 418 kts 237°
2026-05-07 14:07 43.44361 -0.14563 36919 ft 418 kts 237°
2026-05-07 14:07 43.41336 -0.21370 36928 ft 418 kts 237°
2026-05-07 14:08 43.38317 -0.28141 36934 ft 418 kts 237°
2026-05-07 14:08 43.35290 -0.34919 36924 ft 418 kts 237°
2026-05-07 14:09 43.32250 -0.41708 36927 ft 418 kts 237°
2026-05-07 14:09 43.29216 -0.48470 36918 ft 419 kts 237°
2026-05-07 14:10 43.26172 -0.55239 36921 ft 419 kts 237°
2026-05-07 14:10 43.23128 -0.61993 36921 ft 419 kts 237°
2026-05-07 14:11 43.20067 -0.68769 36926 ft 419 kts 236°
2026-05-07 14:11 43.17010 -0.75517 36928 ft 419 kts 236°
2026-05-07 14:12 43.13950 -0.82259 36931 ft 419 kts 236°
2026-05-07 14:12 43.10877 -0.89014 36935 ft 419 kts 236°
2026-05-07 14:13 43.07807 -0.95745 36935 ft 419 kts 236°
2026-05-07 14:13 43.04730 -1.02477 36926 ft 420 kts 236°
2026-05-07 14:14 43.01642 -1.09216 36929 ft 421 kts 236°
2026-05-07 14:14 42.98540 -1.15972 36919 ft 421 kts 236°
2026-05-07 14:14 42.96988 -1.19344 37104 ft 422 kts 236°
2026-05-07 14:15 42.95444 -1.22699 37010 ft 420 kts 236°
2026-05-07 14:15 42.92349 -1.29407 36941 ft 419 kts 236°
2026-05-07 14:16 42.89242 -1.36123 36930 ft 420 kts 236°
2026-05-07 14:16 42.86138 -1.42818 36933 ft 420 kts 236°
2026-05-07 14:17 42.83025 -1.49516 36927 ft 421 kts 236°
2026-05-07 14:17 42.79909 -1.56208 36931 ft 421 kts 237°
2026-05-07 14:18 42.76785 -1.62933 36933 ft 421 kts 238°
2026-05-07 14:18 42.74024 -1.69918 36923 ft 422 kts 243°
2026-05-07 14:19 42.71813 -1.77280 36920 ft 424 kts 249°
2026-05-07 14:19 42.70048 -1.84933 36930 ft 425 kts 251°
2026-05-07 14:20 42.68325 -1.92578 36922 ft 426 kts 251°
2026-05-07 14:20 42.66592 -2.00234 36926 ft 427 kts 251°
2026-05-07 14:21 42.64851 -2.07901 36925 ft 427 kts 251°
2026-05-07 14:21 42.63099 -2.15583 36918 ft 427 kts 251°
2026-05-07 14:22 42.61274 -2.23203 36918 ft 427 kts 250°
2026-05-07 14:22 42.59422 -2.30805 36923 ft 427 kts 250°
2026-05-07 14:23 42.57562 -2.38429 36918 ft 426 kts 250°
2026-05-07 14:23 42.55709 -2.46016 36912 ft 426 kts 250°
2026-05-07 14:24 42.53849 -2.53604 36910 ft 427 kts 250°
2026-05-07 14:24 42.51982 -2.61201 36908 ft 427 kts 251°
2026-05-07 14:25 42.50104 -2.68819 36914 ft 427 kts 250°
2026-05-07 14:25 42.48227 -2.76404 36908 ft 427 kts 250°
2026-05-07 14:26 42.46341 -2.83996 36910 ft 428 kts 250°
2026-05-07 14:26 42.44171 -2.91470 36909 ft 428 kts 245°
2026-05-07 14:27 42.41703 -2.98744 36904 ft 428 kts 244°
2026-05-07 14:27 42.39221 -3.06026 36907 ft 428 kts 245°
2026-05-07 14:28 42.36741 -3.13287 36909 ft 428 kts 244°
2026-05-07 14:28 42.34245 -3.20576 36914 ft 428 kts 245°
2026-05-07 14:29 42.31759 -3.27817 36916 ft 428 kts 245°
2026-05-07 14:29 42.29263 -3.35067 36921 ft 428 kts 245°
2026-05-07 14:30 42.26750 -3.42346 36923 ft 429 kts 245°
2026-05-07 14:30 42.24241 -3.49597 36921 ft 429 kts 245°
2026-05-07 14:31 42.21723 -3.56851 36918 ft 429 kts 245°
2026-05-07 14:31 42.19201 -3.64099 36911 ft 429 kts 245°
2026-05-07 14:32 42.16664 -3.71370 36901 ft 430 kts 244°
2026-05-07 14:32 42.14133 -3.78606 36894 ft 429 kts 244°
2026-05-07 14:33 42.11602 -3.85828 36891 ft 429 kts 244°
2026-05-07 14:33 42.09053 -3.93080 36885 ft 430 kts 245°
2026-05-07 14:34 42.06506 -4.00307 36878 ft 430 kts 245°
2026-05-07 14:34 42.03951 -4.07538 36887 ft 431 kts 244°
2026-05-07 14:35 42.01339 -4.14745 36881 ft 430 kts 243°
2026-05-07 14:35 41.98612 -4.21892 36879 ft 430 kts 243°
2026-05-07 14:36 41.95899 -4.28987 36881 ft 429 kts 243°
2026-05-07 14:36 41.93189 -4.36075 36878 ft 429 kts 244°
2026-05-07 14:37 41.90468 -4.43185 36883 ft 428 kts 244°
2026-05-07 14:37 41.86398 -4.53798 36880 ft 428 kts 244°
2026-05-07 14:38 41.83683 -4.60850 36880 ft 428 kts 244°
2026-05-07 14:38 41.80959 -4.67914 36881 ft 427 kts 244°
2026-05-07 14:39 41.78244 -4.74938 36872 ft 427 kts 244°
2026-05-07 14:39 41.75526 -4.81953 36874 ft 427 kts 244°
2026-05-07 14:40 41.72804 -4.88961 36871 ft 427 kts 244°
2026-05-07 14:40 41.70067 -4.95987 36870 ft 426 kts 244°
2026-05-07 14:41 41.67341 -5.02974 36869 ft 426 kts 244°
2026-05-07 14:41 41.64604 -5.09964 36871 ft 426 kts 245°
2026-05-07 14:42 41.61863 -5.16953 36875 ft 425 kts 245°
2026-05-07 14:42 41.59129 -5.23908 36874 ft 425 kts 245°
2026-05-07 14:43 41.56392 -5.30856 36879 ft 425 kts 245°
2026-05-07 14:43 41.53653 -5.37787 36882 ft 424 kts 245°
2026-05-07 14:44 41.50904 -5.44727 36881 ft 423 kts 245°
2026-05-07 14:44 41.49535 -5.48179 36745 ft 424 kts 245°
2026-05-07 14:44 41.48162 -5.51637 36827 ft 425 kts 245°
2026-05-07 14:45 41.45410 -5.58555 36874 ft 424 kts 245°
2026-05-07 14:45 41.42645 -5.65487 36895 ft 424 kts 245°
2026-05-07 14:46 41.39884 -5.72388 36884 ft 424 kts 245°
2026-05-07 14:46 41.37130 -5.79264 36888 ft 424 kts 246°
2026-05-07 14:47 41.34370 -5.86140 36891 ft 423 kts 245°
2026-05-07 14:47 41.31597 -5.93028 36887 ft 423 kts 246°
2026-05-07 14:48 41.28836 -5.99872 36887 ft 422 kts 246°
2026-05-07 14:48 41.26073 -6.06708 36878 ft 422 kts 246°
2026-05-07 14:49 41.23298 -6.13547 36877 ft 420 kts 246°
2026-05-07 14:49 41.20540 -6.20332 36866 ft 419 kts 246°
2026-05-07 14:50 41.17712 -6.27043 36870 ft 419 kts 243°
2026-05-07 14:50 41.14409 -6.33403 36860 ft 422 kts 239°
2026-05-07 14:51 41.10907 -6.39627 36861 ft 421 kts 239°
2026-05-07 14:51 41.07423 -6.45808 36868 ft 421 kts 239°
2026-05-07 14:52 41.03943 -6.51967 36852 ft 418 kts 239°
2026-05-07 14:52 41.00463 -6.58115 36852 ft 418 kts 239°
2026-05-07 14:53 40.97010 -6.64203 36869 ft 415 kts 239°
2026-05-07 14:53 40.93557 -6.70277 36857 ft 414 kts 239°
2026-05-07 14:54 40.90108 -6.76332 36847 ft 414 kts 239°
2026-05-07 14:54 40.86656 -6.82385 36846 ft 412 kts 239°
2026-05-07 14:55 40.83220 -6.88392 36854 ft 412 kts 239°
2026-05-07 14:55 40.79782 -6.94396 36846 ft 411 kts 239°
2026-05-07 14:56 40.76345 -7.00385 36849 ft 409 kts 239°
2026-05-07 14:56 40.72929 -7.06328 36843 ft 407 kts 239°
2026-05-07 14:57 40.69522 -7.12242 36843 ft 407 kts 239°
2026-05-07 14:57 40.66116 -7.18143 36855 ft 407 kts 239°
2026-05-07 14:58 40.62695 -7.24059 36858 ft 406 kts 239°
2026-05-07 14:58 40.59281 -7.29952 36868 ft 407 kts 239°
2026-05-07 14:59 40.55865 -7.35833 36876 ft 406 kts 239°
2026-05-07 14:59 40.52440 -7.41721 36872 ft 405 kts 239°
2026-05-07 15:00 40.49032 -7.47566 36868 ft 405 kts 239°
2026-05-07 15:00 40.45620 -7.53414 36873 ft 405 kts 238°
2026-05-07 15:01 40.42210 -7.59243 36874 ft 404 kts 239°
2026-05-07 15:01 40.38792 -7.65076 36865 ft 404 kts 238°
2026-05-07 15:02 40.35386 -7.70874 36860 ft 404 kts 238°
2026-05-07 15:02 40.31977 -7.76670 36859 ft 403 kts 238°
2026-05-07 15:03 40.28551 -7.82488 36863 ft 403 kts 238°
2026-05-07 15:03 40.25150 -7.88244 36873 ft 401 kts 238°
2026-05-07 15:04 40.21751 -7.93991 36869 ft 401 kts 238°
2026-05-07 15:04 40.18355 -7.99721 36867 ft 401 kts 238°
2026-05-07 15:05 40.14944 -8.05468 36867 ft 401 kts 238°
2026-05-07 15:05 40.13245 -8.08323 36659 ft 400 kts 238°
2026-05-07 15:05 40.11553 -8.11163 35945 ft 400 kts 238°
2026-05-07 15:06 40.09851 -8.14021 34882 ft 406 kts 238°
2026-05-07 15:06 40.08125 -8.16921 33608 ft 411 kts 238°
2026-05-07 15:06 40.06381 -8.19853 32227 ft 416 kts 237°
2026-05-07 15:06 40.04601 -8.22841 30698 ft 424 kts 237°
2026-05-07 15:07 40.02784 -8.25829 29388 ft 426 kts 233°
2026-05-07 15:07 40.00570 -8.28342 28801 ft 421 kts 219°
2026-05-07 15:07 39.97993 -8.30070 28513 ft 418 kts 206°
2026-05-07 15:07 39.95148 -8.30992 28501 ft 428 kts 194°
2026-05-07 15:08 39.89239 -8.31930 28466 ft 430 kts 192°
2026-05-07 15:08 39.83295 -8.32803 28365 ft 429 kts 192°
2026-05-07 15:09 39.77383 -8.33698 28118 ft 429 kts 192°
2026-05-07 15:09 39.74430 -8.34148 27872 ft 424 kts 192°
2026-05-07 15:09 39.71548 -8.34656 27499 ft 413 kts 198°
2026-05-07 15:10 39.68957 -8.35947 27133 ft 393 kts 215°
2026-05-07 15:10 39.66853 -8.38080 26769 ft 375 kts 231°
2026-05-07 15:10 39.65249 -8.40657 26423 ft 365 kts 237°
2026-05-07 15:10 39.63749 -8.43256 26070 ft 358 kts 237°
2026-05-07 15:11 39.62277 -8.45802 25757 ft 351 kts 237°
2026-05-07 15:11 39.60822 -8.48288 25495 ft 346 kts 236°
2026-05-07 15:11 39.59266 -8.50657 25234 ft 348 kts 230°
2026-05-07 15:11 39.57501 -8.52798 24974 ft 350 kts 224°
2026-05-07 15:12 39.55541 -8.54687 24713 ft 351 kts 217°
2026-05-07 15:12 39.53476 -8.56358 24458 ft 351 kts 215°
2026-05-07 15:12 39.51393 -8.57986 24200 ft 351 kts 215°
2026-05-07 15:12 39.49318 -8.59603 23943 ft 349 kts 215°
2026-05-07 15:13 39.47248 -8.61220 23689 ft 348 kts 215°
2026-05-07 15:13 39.45187 -8.62832 23429 ft 347 kts 215°
2026-05-07 15:13 39.43138 -8.64434 23172 ft 345 kts 215°
2026-05-07 15:13 39.41085 -8.66040 22920 ft 343 kts 214°
2026-05-07 15:14 39.39051 -8.67629 22669 ft 342 kts 214°
2026-05-07 15:14 39.37028 -8.69213 22423 ft 341 kts 214°
2026-05-07 15:14 39.35006 -8.70793 22165 ft 340 kts 214°
2026-05-07 15:14 39.33012 -8.72388 21913 ft 337 kts 216°
2026-05-07 15:15 39.31114 -8.74117 21662 ft 334 kts 220°
2026-05-07 15:15 39.29323 -8.76001 21420 ft 332 kts 223°
2026-05-07 15:15 39.27593 -8.77973 21170 ft 330 kts 224°
2026-05-07 15:15 39.25883 -8.79935 20907 ft 330 kts 224°
2026-05-07 15:16 39.24183 -8.81882 20655 ft 328 kts 224°
2026-05-07 15:16 39.22489 -8.83822 20406 ft 327 kts 224°
2026-05-07 15:16 39.20799 -8.85755 20165 ft 325 kts 224°
2026-05-07 15:16 39.19116 -8.87679 19916 ft 324 kts 223°
2026-05-07 15:17 39.17438 -8.89594 19664 ft 323 kts 224°
2026-05-07 15:17 39.15755 -8.91514 19405 ft 321 kts 223°
2026-05-07 15:17 39.14095 -8.93405 19162 ft 320 kts 223°
2026-05-07 15:17 39.12439 -8.95292 18921 ft 319 kts 223°
2026-05-07 15:18 39.10786 -8.97173 18673 ft 318 kts 223°
2026-05-07 15:18 39.09137 -8.99048 18417 ft 317 kts 223°
2026-05-07 15:18 39.07491 -9.00917 18162 ft 316 kts 223°
2026-05-07 15:18 39.05850 -9.02782 17903 ft 316 kts 223°
2026-05-07 15:19 39.04197 -9.04657 17662 ft 315 kts 223°
2026-05-07 15:19 39.02564 -9.06511 17436 ft 313 kts 223°
2026-05-07 15:19 39.00921 -9.08323 17204 ft 311 kts 219°
2026-05-07 15:19 38.99120 -9.09799 16898 ft 307 kts 209°
2026-05-07 15:20 38.97200 -9.10919 16595 ft 302 kts 204°
2026-05-07 15:20 38.95279 -9.11942 16296 ft 297 kts 204°
2026-05-07 15:20 38.93386 -9.12938 16017 ft 292 kts 204°
2026-05-07 15:20 38.91529 -9.13917 15786 ft 284 kts 204°
2026-05-07 15:21 38.89719 -9.14877 15580 ft 281 kts 203°
2026-05-07 15:21 38.87915 -9.15836 15397 ft 281 kts 204°
2026-05-07 15:21 38.86114 -9.16796 15202 ft 281 kts 203°
2026-05-07 15:21 38.84323 -9.17752 14930 ft 280 kts 203°
2026-05-07 15:22 38.82549 -9.18699 14618 ft 278 kts 203°
2026-05-07 15:22 38.80806 -9.19629 14292 ft 277 kts 203°
2026-05-07 15:22 38.79027 -9.20577 13949 ft 275 kts 202°
2026-05-07 15:22 38.77271 -9.21513 13606 ft 274 kts 202°
2026-05-07 15:23 38.75521 -9.22445 13264 ft 272 kts 202°
2026-05-07 15:23 38.73783 -9.23374 12925 ft 271 kts 204°
2026-05-07 15:23 38.72202 -9.24632 12576 ft 270 kts 220°
2026-05-07 15:23 38.70951 -9.26396 12242 ft 269 kts 231°
2026-05-07 15:24 38.69836 -9.28300 11913 ft 267 kts 232°
2026-05-07 15:24 38.68740 -9.30212 11584 ft 266 kts 233°
2026-05-07 15:24 38.67754 -9.32190 11256 ft 265 kts 239°
2026-05-07 15:24 38.66941 -9.34282 10939 ft 263 kts 244°
2026-05-07 15:25 38.66189 -9.36395 10618 ft 262 kts 244°
2026-05-07 15:25 38.65443 -9.38507 10297 ft 261 kts 244°
2026-05-07 15:25 38.64703 -9.40594 9977 ft 259 kts 244°
2026-05-07 15:25 38.63959 -9.42676 9655 ft 258 kts 244°
2026-05-07 15:26 38.63215 -9.44753 9336 ft 256 kts 244°
2026-05-07 15:26 38.62479 -9.46805 9021 ft 254 kts 244°
2026-05-07 15:26 38.61746 -9.48843 8708 ft 253 kts 244°
2026-05-07 15:26 38.61017 -9.50867 8401 ft 251 kts 244°
2026-05-07 15:27 38.60283 -9.52880 8120 ft 251 kts 241°
2026-05-07 15:27 38.59165 -9.54487 7897 ft 240 kts 207°
2026-05-07 15:27 38.57582 -9.54992 7898 ft 239 kts 178°
2026-05-07 15:27 38.55935 -9.54627 7906 ft 240 kts 168°
2026-05-07 15:28 38.54308 -9.54169 7905 ft 240 kts 169°
2026-05-07 15:28 38.52697 -9.53649 7886 ft 239 kts 158°
2026-05-07 15:28 38.51440 -9.52323 7638 ft 240 kts 122°
2026-05-07 15:28 38.51035 -9.50274 7181 ft 246 kts 89°
2026-05-07 15:29 38.51451 -9.48177 6829 ft 247 kts 68°
2026-05-07 15:29 38.52154 -9.46195 6531 ft 246 kts 68°
2026-05-07 15:29 38.52845 -9.44201 6198 ft 245 kts 68°
2026-05-07 15:29 38.53502 -9.42214 5832 ft 244 kts 69°
2026-05-07 15:30 38.54139 -9.40222 5489 ft 243 kts 69°
2026-05-07 15:30 38.54764 -9.38229 5147 ft 242 kts 69°
2026-05-07 15:30 38.55376 -9.36250 4826 ft 241 kts 69°
2026-05-07 15:30 38.55984 -9.34278 4568 ft 236 kts 69°
2026-05-07 15:31 38.56570 -9.32369 4406 ft 228 kts 69°
2026-05-07 15:31 38.57138 -9.30518 4234 ft 220 kts 69°
2026-05-07 15:31 38.57681 -9.28746 4109 ft 208 kts 69°
2026-05-07 15:31 38.58190 -9.27085 3985 ft 194 kts 69°
2026-05-07 15:32 38.58672 -9.25513 3982 ft 194 kts 69°
2026-05-07 15:32 38.59308 -9.24000 3935 ft 195 kts 46°
2026-05-07 15:32 38.60405 -9.23009 3740 ft 194 kts 26°
2026-05-07 15:32 38.61630 -9.22327 3485 ft 192 kts 20°
2026-05-07 15:33 38.62873 -9.21720 3228 ft 190 kts 19°
2026-05-07 15:33 38.64079 -9.21116 2970 ft 184 kts 20°
2026-05-07 15:33 38.65239 -9.20510 2723 ft 178 kts 20°
2026-05-07 15:33 38.66358 -9.19911 2486 ft 171 kts 20°
2026-05-07 15:34 38.67429 -9.19332 2268 ft 166 kts 20°
2026-05-07 15:34 38.68472 -9.18769 2050 ft 158 kts 20°
2026-05-07 15:34 38.69451 -9.18240 1872 ft 148 kts 19°
2026-05-07 15:34 38.70371 -9.17745 1693 ft 140 kts 19°
2026-05-07 15:35 38.71261 -9.17270 1517 ft 139 kts 19°
2026-05-07 15:35 38.72146 -9.16795 1335 ft 138 kts 19°
2026-05-07 15:35 38.73029 -9.16322 1138 ft 138 kts 19°
2026-05-07 15:35 38.73909 -9.15850 957 ft 138 kts 19°
2026-05-07 15:36 38.74795 -9.15376 780 ft 138 kts 19°
2026-05-07 15:36 38.75678 -9.14903 604 ft 136 kts 19°
2026-05-07 15:36 38.76550 -9.14451 440 ft 135 kts 18°
2026-05-07 15:36 38.77393 -9.14033 370 ft 116 kts 28°
2026-05-07 15:37 38.77976 -9.13711 369 ft 65 kts 25°
2026-05-07 15:37 38.78246 -9.13508 369 ft 36 kts 40°
2026-05-07 15:37 38.78360 -9.13370 369 ft 11 kts 55°
2026-05-07 15:37 38.78359 -9.13281 369 ft 10 kts 136°
2026-05-07 15:38 38.78289 -9.13271 369 ft 11 kts 196°
2026-05-07 15:38 38.78218 -9.13309 369 ft 11 kts 203°
2026-05-07 15:38 38.78143 -9.13351 369 ft 12 kts 204°
2026-05-07 15:38 38.78063 -9.13398 369 ft 13 kts 205°
2026-05-07 15:39 38.77979 -9.13444 369 ft 13 kts 203°
2026-05-07 15:39 38.77893 -9.13493 369 ft 14 kts 205°
2026-05-07 15:39 38.77803 -9.13547 369 ft 14 kts 205°
2026-05-07 15:39 38.77712 -9.13602 369 ft 15 kts 206°
2026-05-07 15:40 38.77620 -9.13660 369 ft 15 kts 199°
2026-05-07 15:40 38.77523 -9.13705 369 ft 15 kts 200°
2026-05-07 15:40 38.77422 -9.13741 369 ft 15 kts 201°
2026-05-07 15:40 38.77323 -9.13794 370 ft 16 kts 204°
2026-05-07 15:41 38.77253 -9.13835 370 ft 5 kts 204°
2026-05-07 15:41 38.77215 -9.13856 370 ft 7 kts 203°
2026-05-07 15:41 38.77157 -9.13886 370 ft 11 kts 194°
2026-05-07 15:41 38.77079 -9.13892 370 ft 12 kts 175°
2026-05-07 15:42 38.77052 -9.13864 370 ft 5 kts 76°
2026-05-07 15:42 38.77093 -9.13848 370 ft 7 kts 360°
2026-05-07 15:42 38.77144 -9.13860 370 ft 8 kts 343°
2026-05-07 15:42 38.77181 -9.13833 370 ft 7 kts 62°
2026-05-07 15:43 38.77205 -9.13776 370 ft 8 kts 65°
2026-05-07 15:43 38.77221 -9.13723 370 ft 6 kts 81°
2026-05-07 15:43 38.77212 -9.13677 370 ft 6 kts 121°
2026-05-07 15:43 38.77190 -9.13656 370 ft 2 kts 161°
2026-05-07 15:44 38.77173 -9.13651 370 ft 3 kts 166°
2026-05-07 15:44 38.77147 -9.13643 370 ft 4 kts 166°
2026-05-07 15:44 38.77138 -9.13639 370 ft 1 kts 165°
2026-05-07 15:44 38.77136 -9.13639 370 ft 0 kts 165°